#timestamp,LO_Frequency,Hit,StdDev 
1581213615.5,286047000.8,N
1581213635.3,286047006.9,N
1581213655.2,286047005.4,N
1581213675.9,286047004.1,N
1581213695.7,286047008.1,N
1581213715.6,286047005.8,N
1581213735.4,286046998.1,N
1581213755.2,286047005.5,N
1581213775.1,286047012.0,Y
1581213776.0,286047012.0,P
1581213795.8,286047012.1,N
1581213815.7,286047006.1,N
1581213835.5,286047012.4,Y
1581213855.3,286047007.2,P
1581213875.2,286047005.7,P
1581213895.0,286047006.9,P
1581213895.9,286047006.9,Y
1581213915.8,286046996.6,P
1581213935.6,286046996.9,N
1581213955.4,286046999.0,N
1581213975.3,286046995.3,N
1581213995.1,286047001.0,N
1581214015.9,286047004.4,N
1581214035.7,286047006.1,N
1581214055.5,286047012.3,N
1581214075.4,286047012.9,N
1581214095.2,286047013.4,N
1581214115.0,286047012.7,N
1581214115.9,286047012.7,N
1581214135.8,286047013.8,N
1581214155.6,286047014.6,N
1581214175.5,286047021.2,Y
1581214195.3,286047015.4,P
1581214215.1,286047017.2,P
1581214235.9,286047023.1,P
1581214255.7,286047026.2,Y
1581214275.6,286047009.8,P
1581214295.4,286047020.0,P
1581214315.2,286047025.8,P
1581214335.1,286047027.3,Y
1581214336.0,286047027.3,P
1581214355.8,286047016.8,P
1581214375.6,286047008.6,N
1581214395.5,286047004.1,N
1581214415.3,286047007.8,N
1581214435.2,286047008.3,N
1581214455.9,286046991.3,N
1581214475.7,286046983.6,N
1581214495.6,286046976.6,N
1581214515.4,286046972.9,N
1581214535.3,286046975.7,N
1581214555.1,286046978.0,N
1581214556.0,286046978.0,N
1581214575.8,286046985.0,N
1581214595.7,286046980.9,N
1581214615.5,286046977.6,N
1581214635.3,286046974.7,N
1581214655.2,286046977.5,N
1581214675.0,286046978.0,N
1581214675.9,286046978.0,N
1581214695.8,286046976.4,N
1581214715.6,286046972.3,N
1581214735.4,286046965.9,N
1581214755.3,286046968.1,N
1581214775.1,286046966.2,N
1581214795.8,286046965.8,N
1581214815.7,286046961.8,N
1581214835.5,286046969.0,N
1581214855.4,286046967.3,N
1581214875.2,286046968.3,N
1581214895.0,286046968.5,N
1581214895.9,286046968.5,N
1581214915.8,286046966.4,N
1581214935.6,286046969.9,N
1581214955.5,286046977.1,N
1581214975.3,286046984.6,N
1581214995.1,286046984.1,N
1581215015.9,286046984.4,N
1581215035.7,286046977.9,Y
1581215055.5,286047007.0,P
1581215075.4,286047008.4,N
1581215095.2,286047006.3,N
1581215115.1,286047009.5,N
1581215116.0,286047009.5,N
1581215135.8,286047011.9,N
1581215155.6,286047011.5,N
1581215175.5,286047010.4,N
1581215195.3,286047009.1,N
1581215215.2,286047006.7,N
1581215235.9,286047004.7,N
1581215255.7,286046999.8,N
1581215275.6,286046996.0,N
1581215295.4,286046994.0,N
1581215315.2,286046995.0,N
1581215335.1,286046995.5,N
1581215336.0,286046995.5,N
1581215355.8,286046994.5,N
1581215375.7,286046988.3,N
1581215395.5,286046984.8,N
1581215415.3,286046978.5,N
1581215435.2,286046979.2,N
1581215455.0,286046981.8,N
1581215455.9,286046981.8,N
1581215475.8,286046985.3,N
1581215495.6,286046975.9,N
1581215515.4,286046987.4,N
1581215535.3,286046990.3,N
1581215555.1,286046991.9,N
1581215575.8,286046991.0,N
1581215595.7,286046990.9,N
1581215615.5,286046986.2,N
1581215635.4,286046980.2,N
1581215655.2,286046974.1,N
1581215675.0,286046978.8,N
1581215675.9,286046978.8,N
1581215695.8,286046976.4,N
1581215715.6,286046973.2,N
1581215735.5,286046974.9,N
1581215755.3,286046975.7,N
1581215775.1,286046980.3,N
1581215795.9,286046977.6,N
1581215815.7,286046972.8,Y
1581215835.5,286046995.9,P
1581215855.4,286046993.5,N
1581215875.2,286046988.7,N
1581215895.1,286046987.5,N
1581215896.0,286046987.5,Y
1581215915.8,286046998.5,P
1581215935.6,286047003.3,N
1581215955.5,286047002.6,N
1581215975.3,286047000.8,N
1581215995.2,286046995.4,N
1581216015.9,286047004.8,N
1581216035.7,286047000.6,N
1581216055.6,286046997.7,N
1581216075.4,286047001.1,N
1581216095.2,286046999.7,N
1581216115.1,286047010.5,N
1581216116.0,286047010.5,N
1581216135.8,286047004.4,N
1581216155.7,286047002.6,N
1581216175.5,286047001.7,N
1581216195.3,286047002.6,N
1581216215.2,286047003.4,N
1581216235.0,286047002.2,N
1581216235.9,286047002.2,N
1581216255.7,286047002.2,N
1581216275.6,286047004.1,N
1581216295.4,286047001.6,N
1581216315.3,286047004.0,N
1581216335.1,286046999.7,N
1581216336.0,286046999.7,N
1581216355.8,286047006.7,N
1581216375.7,286047007.3,N
1581216395.5,286047004.1,N
1581216415.3,286047007.5,N
1581216435.2,286047008.5,N
1581216455.0,286047006.4,N
1581216455.9,286047006.4,N
1581216475.8,286047009.7,N
1581216495.6,286047012.3,Y
1581216515.4,286047003.0,P
1581216535.3,286047008.4,P
1581216555.1,286047008.4,P
1581216575.9,286047004.6,N
1581216595.7,286047010.7,Y
1581216615.5,286047002.5,P
1581216635.4,286047000.3,N
1581216655.2,286047004.6,N
1581216675.1,286047009.2,Y
1581216676.0,286047009.2,P
1581216695.8,286047000.2,N
1581216715.6,286047007.6,N
1581216735.5,286047006.6,N
1581216755.3,286047002.9,N
1581216775.1,286047009.8,Y
1581216795.9,286047002.0,P
1581216815.7,286046997.1,N
1581216835.6,286046998.9,N
1581216855.4,286047001.3,N
1581216875.2,286047005.2,N
1581216895.1,286047011.4,Y
1581216896.0,286047011.4,P
1581216915.8,286047009.2,N
1581216935.7,286047003.1,N
1581216955.5,286047000.9,N
1581216975.3,286046999.6,N
1581216995.2,286046998.8,N
1581217015.0,286047001.8,N
1581217015.9,286047001.8,N
1581217035.8,286047005.0,N
1581217055.6,286047002.3,N
1581217075.4,286047000.1,N
1581217095.3,286047002.1,N
1581217115.1,286046999.0,N
1581217135.8,286047003.2,N
1581217155.7,286046998.7,N
1581217175.5,286046994.2,N
1581217195.4,286046992.0,N
